EW6946 Weather Reports


Display with metric or nautical units.
time (UTC)temp
F
wind
direction
speed
MPH
gust
MPH
rain 1hr
in
rain 24hr
in
rain mn
in
humidity
%
barometer
mb
20260510044504 53 195 5.0 0.0 0.00 0.00 0.00 92 1004.4
20260510043145 53 225 6.0 0.0 0.00 0.00 0.00 92 1003.9
20260510041557 53 188 5.0 0.0 0.00 0.00 0.00 91 1003.8
20260510040055 54 203 6.0 0.0 0.00 0.00 0.00 91 1003.5
20260510034555 54 225 5.0 0.0 0.00 0.00 0.12 90 1003.7
20260510033057 54 205 5.0 0.0 0.00 0.00 0.12 89 1003.7
20260510031624 54 252 4.0 0.0 0.00 0.00 0.12 89 1003.8
20260510030053 55 202 7.0 0.0 0.00 0.00 0.12 88 1003.5
20260510024551 55 205 8.0 0.0 0.00 0.00 0.11 86 1003.7
20260510023057 56 192 9.0 0.0 0.00 0.00 0.07 81 1003.6
20260510021547 58 131 10.0 0.0 0.00 0.00 0.00 73 1003.1
20260510020049 59 167 9.0 0.0 0.00 0.00 0.00 69 1002.8
20260510014545 59 185 8.0 0.0 0.00 0.00 0.00 69 1002.9
20260510013043 59 157 7.0 0.0 0.00 0.00 0.00 67 1003.2
20260510011555 60 167 7.0 0.0 0.00 0.00 0.00 66 1003.2
20260510010050 60 168 6.0 0.0 0.00 0.00 0.00 63 1003.3
20260510004541 61 184 6.0 0.0 0.00 0.00 0.00 60 1003.4
20260510003041 61 183 7.0 0.0 0.00 0.00 0.00 59 1003.3
20260510001538 61 187 7.0 0.0 0.00 0.00 0.00 58 1003.5
20260510000037 62 160 6.0 0.0 0.00 0.00 0.00 58 1003.8
20260509234537 62 250 8.0 0.0 0.00 0.00 0.00 58 1004.0
20260509233037 62 198 9.0 0.0 0.00 0.00 0.00 58 1004.2
20260509231536 63 194 8.0 0.0 0.00 0.00 0.00 58 1004.3
20260509230036 63 188 12.0 0.0 0.00 0.00 0.00 56 1004.2
20260509224535 64 205 10.0 0.0 0.00 0.00 0.00 54 1003.9
20260509223035 65 192 10.0 0.0 0.00 0.00 0.00 48 1003.9
20260509221537 65 189 8.0 0.0 0.00 0.00 0.00 46 1003.8
20260509220037 65 212 8.0 0.0 0.00 0.00 0.00 45 1003.5
20260509214530 66 200 11.0 0.0 0.00 0.00 0.00 43 1003.8
20260509213031 67 177 11.0 0.0 0.00 0.00 0.00 43 1003.9
20260509211553 68 182 9.0 0.0 0.00 0.00 0.00 40 1004.1
20260509210029 67 162 10.0 0.0 0.00 0.00 0.00 39 1003.9
20260509204527 68 175 11.0 0.0 0.00 0.00 0.00 38 1004.0
20260509203038 69 179 10.0 0.0 0.00 0.00 0.00 35 1004.2
20260509201525 70 207 9.0 0.0 0.00 0.00 0.00 33 1004.2
20260509200025 69 166 10.0 0.0 0.00 0.00 0.00 31 1004.4
20260509194522 70 193 10.0 0.0 0.00 0.00 0.00 30 1004.4
20260509193022 70 185 10.0 0.0 0.00 0.00 0.00 30 1004.7
20260509191520 70 157 11.0 0.0 0.00 0.00 0.00 30 1004.6
20260509190023 70 173 15.0 0.0 0.00 0.00 0.00 28 1005.0
20260509184515 70 203 9.0 0.0 0.00 0.00 0.00 28 1005.3
20260509183018 70 211 9.0 0.0 0.00 0.00 0.00 30 1005.7
20260509181509 69 183 7.0 0.0 0.00 0.00 0.00 32 1006.0
20260509180006 68 177 10.0 0.0 0.00 0.00 0.00 29 1006.1
20260509174507 68 192 9.0 0.0 0.00 0.00 0.00 29 1006.4
20260509173003 68 159 11.0 0.0 0.00 0.00 0.00 29 1006.4
20260509171609 68 167 10.0 0.0 0.00 0.00 0.00 29 1006.6
20260509170057 67 195 10.0 0.0 0.00 0.00 0.00 29 1007.0
20260509164555 67 215 8.0 0.0 0.00 0.00 0.00 30 1007.2
20260509163100 66 180 9.0 0.0 0.00 0.00 0.00 29 1007.5
20260509161550 66 186 9.0 0.0 0.00 0.00 0.00 30 1007.7
20260509160046 65 168 8.0 0.0 0.00 0.00 0.00 32 1007.8
20260509154542 65 234 10.0 0.0 0.00 0.00 0.00 31 1008.3
20260509153038 64 213 9.0 0.0 0.00 0.00 0.00 35 1008.7
20260509151534 64 190 10.0 0.0 0.00 0.00 0.00 37 1008.9
20260509150030 63 182 9.0 0.0 0.00 0.00 0.00 39 1009.1
20260509144526 63 191 8.0 0.0 0.00 0.00 0.00 39 1009.2
20260509143028 61 220 7.0 0.0 0.00 0.00 0.00 44 1009.3
20260509141519 59 158 5.0 0.0 0.00 0.00 0.00 48 1009.5
20260509140013 57 195 3.0 0.0 0.00 0.00 0.00 49 1009.6
20260509134509 56 122 4.0 0.0 0.00 0.00 0.00 51 1009.7
20260509133005 54 144 4.0 0.0 0.00 0.00 0.00 51 1009.9
20260509131601 52 180 3.0 0.0 0.00 0.00 0.00 53 1010.1
20260509130100 51 199 5.0 0.0 0.00 0.00 0.00 55 1010.3
20260509124605 50 142 6.0 0.0 0.00 0.00 0.00 55 1010.4
20260509123048 49 187 4.0 0.0 0.00 0.00 0.00 57 1010.5
20260509121543 47 136 4.0 0.0 0.00 0.00 0.00 61 1010.5
20260509120040 46 191 4.0 0.0 0.00 0.00 0.00 63 1010.6
20260509114538 45 167 3.0 0.0 0.00 0.00 0.00 65 1010.5
20260509113033 44 156 3.0 0.0 0.00 0.00 0.00 67 1010.4
20260509111510 43 162 1.0 0.0 0.00 0.00 0.00 69 1010.4
20260509110009 42 173 4.0 0.0 0.00 0.00 0.00 72 1010.3
20260509104508 40 138 4.0 0.0 0.00 0.00 0.00 75 1010.0
20260509103001 38 150 2.0 0.0 0.00 0.00 0.00 78 1010.0
20260509101558 38 173 3.0 0.0 0.00 0.00 0.00 78 1010.0
20260509100108 38 153 3.0 0.0 0.00 0.00 0.00 78 1010.0
20260509094552 39 157 1.0 0.0 0.00 0.00 0.00 78 1010.1
20260509093050 39 158 0.0 0.0 0.00 0.00 0.00 77 1010.0
20260509091550 39 170 2.0 0.0 0.00 0.00 0.00 77 1009.9
20260509090047 40 188 2.0 0.0 0.00 0.00 0.00 76 1009.9
20260509084550 40 164 3.0 0.0 0.00 0.00 0.00 76 1009.8
20260509083046 40 167 3.0 0.0 0.00 0.00 0.00 76 1010.0
20260509081544 40 185 2.0 0.0 0.00 0.00 0.00 75 1010.1
20260509074541 40 192 3.0 0.0 0.00 0.00 0.00 74 1010.1
20260509073121 41 171 3.0 0.0 0.00 0.00 0.00 74 1010.0
20260509071537 41 185 6.0 0.0 0.00 0.00 0.00 74 1010.1
20260509070035 41 194 5.0 0.0 0.00 0.00 0.00 73 1010.1
20260509064533 42 186 6.0 0.0 0.00 0.00 0.00 73 1010.2
20260509063032 42 196 5.0 0.0 0.00 0.00 0.00 72 1010.2
20260509061527 42 182 6.0 0.0 0.00 0.00 0.00 72 1010.2
20260509060025 42 190 5.0 0.0 0.00 0.00 0.00 72 1010.3
20260509054530 43 194 5.0 0.0 0.00 0.00 0.00 71 1010.3
20260509053020 43 186 3.0 0.0 0.00 0.00 0.00 70 1010.3
20260509051517 44 196 4.0 0.0 0.00 0.00 0.00 68 1010.6
20260509050014 44 196 4.0 0.0 0.00 0.00 0.00 67 1010.5